Location: Dead Woman Crossing
(43.5369°N, 106.3228°W)
Time: 08:04:20
(UTC+00:00)

NANOSAT C BR1 - Pass Details

Date: 29 June 2022
Orbit: 584 x 599 km, 98.0° (Epoch: 17 August)

Event Time Altitude Azimuth Distance (km) Brightness Sun altitude
Rises 10:32:15 0° 355° (N) 2,848 ? -8.6°
Reaches altitude 10° 10:35:11 10° 333° (NNW) 1,943 ? -8.2°
Maximum altitude 10:37:37 15° 297° (WNW) 1,625 ? -7.9°
Drops below altitude 10° 10:40:02 10° 262° (W) 1,940 ? -7.5°
Enters shadow 10:40:58 - 252° (WSW) 2,184 ? -7.4°
